Regional Weather Roundup
Issued by NWS

Home | Current Version | Previous Version | Graphics & Text | Print | Product List | Glossary On
Versions: 1 2 3 4 5 6 7 8 9 10 11 12 13 14 15 16 17 18 19 20 21 22 23 24 25 26 27 28 29 30 31 32 33 34 35 36 37 38 39 40 41 42 43 44 45 46 47 48 49 50
000
ASUS45 KTFX 270110
RWRMT
MONTANA REGIONAL WEATHER ROUNDUP
NATIONAL WEATHER SERVICE GREAT FALLS MT
700 PM MDT SUN MAR 26 2017

NOTE: "FAIR" INDICATES FEW OR NO CLOUDS BELOW 12000 FEET WITH NO
SIGNIFICANT WEATHER AND/OR OBSTRUCTIONS TO VISIBILITY.

MTZ001>007-043-270200-
WEST OF THE DIVIDE

CITY           SKY/WX    TMP DP  RH WIND       PRES   REMARKS
KALISPELL      CLOUDY    49  29  46 S6        29.81F
MISSOULA       CLOUDY    51  28  41 N6        29.82S
BUTTE          CLOUDY    47  17  30 SW5       29.83R
MULLAN PASS    LGT SNOW  32  31  96 VRB3      29.79S FOG
ANACONDA         N/A     48  14  25 SW10G16   29.82R
DEER LODGE       N/A     48  23  37 NW7       29.83R
EUREKA           N/A     50  27  40 S7        29.81S
HAMILTON         N/A     50  25  37 SE12      29.83R
RONAN            N/A     51  30  44 CALM      29.88F
THOMPSON FALLS   N/A     51  33  50 CALM      29.86F
$$

MTZ008-052>055-270200-
SOUTHWEST MONTANA

CITY           SKY/WX    TMP DP  RH WIND       PRES   REMARKS
BOZEMAN        CLOUDY    52  20  28 SW9       29.83S
DILLON         CLOUDY    46  22  38 SW25G37   29.85R
W YELLOWSTONE  CLOUDY    37  19  48 SW6       29.93F
ENNIS          CLEAR     45  21  39 S18G28    29.91S
THREE FORKS      N/A     52  52 100 S13       29.84S
TWIN BRIDGES     N/A     49  18  29 SE18      29.85R
$$

MTZ009-010-012-014-046-048-049-054-270200-
EAST SLOPES AND CENTRAL MONTANA

CITY           SKY/WX    TMP DP  RH WIND       PRES   REMARKS
CUT BANK       MOCLDY    47  20  34 W16       29.81S
GREAT FALLS    CLOUDY    52  19  27 CALM      29.80F
MALMSTROM AFB  CLOUDY    52  18  26 CALM      29.81S
HELENA         CLOUDY    53  23  31 NW5       29.78F
AUGUSTA          N/A     47  17  30 W6        29.81S
BOWMANS CRNR     N/A     47  18  32 NW5       29.79S
CHOTEAU          N/A     50  18  27 SW3       29.83R
CONRAD           N/A     50  20  30 W1        29.86R
FAIRFIELD        N/A     49  17  27 W5        29.80S
POWER            N/A     50  17  27 W3        29.80S
RAYNESFORD     MOCLDY    50  16  25 N8        29.82S
$$

MTZ011-013-016-021-045-047-050-051-270200-
NORTH CENTRAL MONTANA

CITY           SKY/WX    TMP DP  RH WIND       PRES   REMARKS
HAVRE          CLEAR     51  20  29 W3        29.84S
LEWISTOWN      PTCLDY    48  17  29 N6        29.83R
N BAR RANCH    CLOUDY    50  21  32 SW14      29.85S
CHINOOK          N/A     54  18  24 NW3       29.86S
DENTON           N/A     49  17  28 N7        29.80S
FORT BENTON      N/A     54   9  16 MISG      29.83R
GEYSER         MOCLDY    50  17  27 CALM      29.82S
GRASS RANGE      N/A     49  27  43 NE10      29.80R
STANFORD         N/A     47  16  29 N5        29.84R
WINIFRED         N/A     47  22  36 NE10      29.83R
$$

MTZ017>020-022>027-061-062-270200-
NORTHEAST MONTANA

CITY           SKY/WX    TMP DP  RH WIND       PRES   REMARKS
GLASGOW        CLEAR     53  22  29 W5        29.87S
JORDAN           N/A     55  25  31 NE6       29.85R
SIDNEY         PTCLDY    56  27  32 NW9       29.87R
WOLF POINT     CLEAR     55  24  30 W7        29.88S
MALTA          CLEAR     54  21  28 NW3       29.86S
PLENTYWOOD       N/A     52  23  32 CALM      29.88R
POPLAR           N/A     54  25  32 NW6       29.88S
$$

MTZ028>42-056>058-270200-
SOUTHCENTRAL AND SOUTHEAST MONTANA

CITY           SKY/WX    TMP DP  RH WIND       PRES   REMARKS
BAKER          PTCLDY    53  29  39 NW5       29.88S
BILLINGS       CLOUDY    55  28  35 SE12      29.83S
LIVINGSTON     CLOUDY    51  19  28 SW18      29.82S
MILES CITY     CLEAR     57  30  35 SW5       29.86R
BIG TIMBER     CLOUDY    52  23  32 SW6       29.87R
EKALAKA          N/A     50  30  46 CALM      29.88S
FORSYTH          N/A     57  27  30 NE3       29.85R
HARLOWTON        N/A     49  23  35 SE6       29.84R
LAUREL           N/A     55  26  32 CALM      29.84R
$$

REGIONAL REPORTS...DAKOTAS

CITY           SKY/WX    TMP DP  RH WIND       PRES   REMARKS
WILLISTON      CLOUDY    55  29  36 NW9       29.86R
MINOT          MOCLDY    50  39  66 E9        29.87R
DICKINSON      PTCLDY    51  26  37 CALM      29.86R
BEACH            N/A    N/A N/A N/A MISG        N/A
TIOGA            N/A     50  34  53 N7        29.88R
WATFORD CITY   CLOUDY    55  32  41 CALM      29.86R
BISMARCK       CLEAR     50  37  61 E7        29.91R
GRAND FORKS    CLOUDY    44  40  85 CALM      29.94S
FARGO          MOCLDY    43  38  82 CALM      29.94S
BUFFALO SD       N/A     52  37  56 S12       29.83S
RAPID CITY     CLOUDY    43  39  86 NW5       29.93R
$$

REGIONAL REPORTS...WYOMING/IDAHO/WASHINGTON

CITY           SKY/WX    TMP DP  RH WIND       PRES   REMARKS
GILLETTE       PTCLDY    49  31  49 E3        29.89R
SHERIDAN       CLEAR     51  30  44 SE6       29.87R
BUFFALO WY     PTCLDY    49  30  48 SE5       29.90R
CODY           CLOUDY    52  23  32 S7G23     29.84R
YELLOWSTONE LA   N/A     33  19  56 CALM      29.96S
IDAHO FALLS    CLOUDY    49  30  48 SW16      29.93S
SALMON         CLOUDY    48  28  46 SW7       29.84F
BOISE          PTSUNNY   50  35  56 E12       29.90F
SPOKANE        CLOUDY    44  38  79 SE5       29.81F
$$

REGIONAL REPORTS...ALBERTA

CITY           SKY/WX    TMP DP  RH WIND       PRES   REMARKS
EDMONTON       CLEAR     45  28  53 SE9       29.79F
CALGARY        MOCLDY    46  18  31 SE16      29.73S
LETHBRIDGE     CLOUDY    50  14  23 SW9       29.78S
MEDICINE HAT   PTCLDY    52  16  24 VRB2      29.81S
WATERTON GATE    N/A     43  18  36 SW10        N/A
CARDSTON         N/A     46  16  29 S7          N/A
MILK RIVER       N/A     48  10  21 W10         N/A
ONEFOUR          N/A     48  16  27 S3          N/A
$$

REGIONAL REPORTS...SASKATCHEWAN

CITY           SKY/WX    TMP DP  RH WIND       PRES   REMARKS
SWIFT CURRENT  CLEAR     46  28  49 N10       29.83R
REGINA         MOCLDY    50  27  40 W7        29.85R
SASKATOON      CLOUDY    32  28  86 E8        29.94R WCI  25
CYPRESS HILLS    N/A     43   9  24 SW7         N/A
ROCKGLEN         N/A     46  18  31 W5          N/A
ASSINIBOIA       N/A     41  34  75 SE5         N/A
$$



USA.gov is the U.S. government's official web portal to all federal, state and local government web resources and services.